Location: Hilton Head Island
(32.2163°N, 80.7526°W)
Time: 20:11:04
(UTC-05:00)

Tiangong - Pass Details

Date: 31 January 2026
Orbit: 386 x 392 km, 41.5° (Epoch: 10 February)

Event Time Altitude Azimuth Distance (km) Brightness Sun altitude
Exits shadow 06:24:04 18° 266° (W) 1,029 -0.6 -11.7°
Maximum altitude 06:25:47 30° 216° (SW) 727 -1.0 -11.3°
Drops below altitude 10° 06:28:39 10° 152° (SSE) 1,420 1.3 -10.7°
Sets 06:30:52 0° 141° (SE) 2,273 2.7 -10.3°
